• In Hungary
  • List of Countries
  • For 7 days
  • Water Temperature
  • Satellite Maps
  • Weather Map
  • News
  • Weather Widgets
  • user-avatar
    Login

    Hourly Weather Pilchy

    Today, 24 September, Monday

    Time Temperature Precipitation Wind Pressure Humidity
    00:00 +9°C° 1.3 mm 2 mps 742 mmHg 92%
    01:00 +9°C° 0 mm 3 mps 740 mmHg 93%
    02:00 +8°C° 1.4 mm 4 mps 741 mmHg 92%
    03:00 +7°C° 1.4 mm 5 mps 741 mmHg 91%
    04:00 +7°C° 1.4 mm 5 mps 741 mmHg 90%
    05:00 +7°C° 0.4 mm 5 mps 741 mmHg 90%
    06:00 +8°C° 0.4 mm 5 mps 742 mmHg 89%
    07:00 +8°C° 0 mm 5 mps 743 mmHg 88%
    08:00 +9°C° 0.1 mm 6 mps 743 mmHg 81%
    09:00 +10°C° 0.1 mm 7 mps 744 mmHg 74%
    10:00 +11°C° 0.1 mm 8 mps 744 mmHg 67%
    11:00 +11°C° 0.4 mm 8 mps 745 mmHg 66%
    12:00 +11°C° 0.4 mm 8 mps 745 mmHg 65%
    13:00 +12°C° 0 mm 8 mps 746 mmHg 61%
    14:00 +11°C° 0.1 mm 8 mps 747 mmHg 62%
    15:00 +10°C° 0.1 mm 7 mps 747 mmHg 64%
    16:00 +10°C° 0.1 mm 7 mps 748 mmHg 65%
    17:00 +9°C° 0 mm 7 mps 749 mmHg 68%
    18:00 +8°C° 0 mm 6 mps 750 mmHg 71%
    19:00 +7°C° 0 mm 5 mps 750 mmHg 74%
    20:00 +6°C° 0 mm 5 mps 751 mmHg 75%
    21:00 +6°C° 0 mm 5 mps 752 mmHg 77%
    22:00 +5°C° 0 mm 4 mps 752 mmHg 78%
    23:00 +5°C° 0 mm 4 mps 753 mmHg 79%

    Tomorrow, 25 September, Tuesday

    Time Temperature Precipitation Wind Pressure Humidity
    00:00 +5°C° 0 mm 4 mps 753 mmHg 79%
    01:00 +5°C° 0 mm 4 mps 754 mmHg 80%
    02:00 +5°C° 0 mm 4 mps 754 mmHg 81%
    03:00 +5°C° 0 mm 4 mps 755 mmHg 82%
    04:00 +5°C° 0 mm 4 mps 755 mmHg 83%
    05:00 +5°C° 0 mm 4 mps 756 mmHg 80%
    06:00 +6°C° 0 mm 5 mps 756 mmHg 78%
    07:00 +7°C° 0 mm 5 mps 757 mmHg 75%
    08:00 +8°C° 0.2 mm 6 mps 757 mmHg 70%
    09:00 +9°C° 0.2 mm 6 mps 758 mmHg 65%
    10:00 +9°C° 0.2 mm 7 mps 758 mmHg 60%
    11:00 +10°C° 0.1 mm 7 mps 759 mmHg 58%
    12:00 +10°C° 0.1 mm 7 mps 759 mmHg 56%
    13:00 +10°C° 0.1 mm 7 mps 760 mmHg 54%
    14:00 +10°C° 0.1 mm 7 mps 760 mmHg 55%
    15:00 +10°C° 0.1 mm 7 mps 761 mmHg 56%
    16:00 +9°C° 0.1 mm 6 mps 761 mmHg 57%
    17:00 +8°C° 0 mm 5 mps 762 mmHg 62%
    18:00 +7°C° 0 mm 4 mps 762 mmHg 68%
    19:00 +5°C° 0 mm 4 mps 763 mmHg 73%
    20:00 +5°C° 0 mm 3 mps 763 mmHg 76%
    21:00 +4°C° 0 mm 3 mps 764 mmHg 79%
    22:00 +4°C° 0 mm 3 mps 764 mmHg 82%
    23:00 +4°C° 0 mm 3 mps 764 mmHg 82%

    Day after tomorrow, 26 September, Wednesday

    Time Temperature Precipitation Wind Pressure Humidity
    00:00 +3°C° 0 mm 3 mps 764 mmHg 82%
    01:00 +3°C° 0 mm 3 mps 764 mmHg 82%
    02:00 +3°C° 0 mm 3 mps 764 mmHg 79%
    03:00 +3°C° 0 mm 3 mps 764 mmHg 76%
    04:00 +3°C° 0 mm 3 mps 764 mmHg 73%
    05:00 +3°C° 0 mm 3 mps 764 mmHg 71%
    06:00 +4°C° 0 mm 4 mps 764 mmHg 70%
    07:00 +5°C° 0 mm 4 mps 764 mmHg 68%
    08:00 +7°C° 0 mm 5 mps 764 mmHg 65%
    09:00 +9°C° 0 mm 6 mps 763 mmHg 62%
    10:00 +11°C° 0 mm 6 mps 763 mmHg 59%
    11:00 +11°C° 0 mm 7 mps 762 mmHg 57%
    12:00 +12°C° 0 mm 7 mps 762 mmHg 55%
    13:00 +12°C° 0 mm 7 mps 761 mmHg 53%
    14:00 +11°C° 0.1 mm 7 mps 761 mmHg 59%
    15:00 +10°C° 0.1 mm 7 mps 760 mmHg 65%
    16:00 +9°C° 0.1 mm 6 mps 759 mmHg 70%
    17:00 +9°C° 0.2 mm 7 mps 759 mmHg 73%
    18:00 +8°C° 0.2 mm 7 mps 759 mmHg 75%
    19:00 +8°C° 0.2 mm 7 mps 758 mmHg 78%
    20:00 +8°C° 0.2 mm 7 mps 757 mmHg 76%
    21:00 +8°C° 0.2 mm 7 mps 757 mmHg 75%
    22:00 +8°C° 0.2 mm 7 mps 756 mmHg 73%
    23:00 +9°C° 0.2 mm 7 mps 756 mmHg 72%

    27 September, Thursday

    Time Temperature Precipitation Wind Pressure Humidity
    00:00 +9°C° 0.2 mm 7 mps 755 mmHg 70%
    01:00 +10°C° 0.2 mm 7 mps 754 mmHg 69%
    02:00 +10°C° 0.1 mm 7 mps 754 mmHg 71%
    03:00 +10°C° 0.1 mm 7 mps 754 mmHg 73%
    04:00 +10°C° 0.1 mm 7 mps 753 mmHg 75%
    05:00 +11°C° 0.2 mm 7 mps 753 mmHg 78%
    06:00 +11°C° 0.2 mm 7 mps 753 mmHg 81%
    07:00 +12°C° 0.2 mm 7 mps 753 mmHg 84%
    08:00 +12°C° 0.4 mm 7 mps 754 mmHg 85%
    09:00 +14°C° 0.4 mm 7 mps 754 mmHg 86%
    10:00 +14°C° 0.4 mm 7 mps 754 mmHg 88%
    11:00 +14°C° 0.2 mm 7 mps 754 mmHg 87%
    12:00 +15°C° 0.2 mm 7 mps 754 mmHg 87%
    13:00 +15°C° 0.2 mm 6 mps 755 mmHg 86%
    14:00 +15°C° 0.1 mm 6 mps 755 mmHg 86%
    15:00 +15°C° 0.1 mm 6 mps 755 mmHg 85%
    16:00 +15°C° 0.1 mm 6 mps 755 mmHg 85%
    17:00 +15°C° 0.1 mm 5 mps 755 mmHg 87%
    18:00 +14°C° 0.1 mm 5 mps 755 mmHg 89%
    19:00 +14°C° 0.1 mm 5 mps 755 mmHg 91%
    20:00 +13°C° 0 mm 5 mps 754 mmHg 91%
    21:00 +13°C° 0 mm 5 mps 754 mmHg 92%
    22:00 +13°C° 0 mm 5 mps 754 mmHg 92%
    23:00 +13°C° 0 mm 5 mps 753 mmHg 92%

    28 September, Friday

    Time Temperature Precipitation Wind Pressure Humidity
    00:00 +13°C° 0 mm 6 mps 753 mmHg 91%
    01:00 +13°C° 0 mm 6 mps 752 mmHg 91%
    02:00 +13°C° 0 mm 6 mps 752 mmHg 90%
    03:00 +13°C° 0 mm 6 mps 751 mmHg 89%
    04:00 +14°C° 0 mm 6 mps 751 mmHg 89%
    05:00 +14°C° 0.4 mm 6 mps 751 mmHg 89%
    06:00 +14°C° 0.4 mm 6 mps 751 mmHg 89%
    07:00 +14°C° 0.4 mm 7 mps 750 mmHg 89%
    08:00 +14°C° 0.1 mm 7 mps 751 mmHg 84%
    09:00 +14°C° 0.1 mm 7 mps 751 mmHg 79%
    10:00 +14°C° 0.1 mm 7 mps 752 mmHg 74%
    11:00 +14°C° 0 mm 6 mps 752 mmHg 66%
    12:00 +15°C° 0 mm 6 mps 752 mmHg 58%
    13:00 +15°C° 0 mm 6 mps 753 mmHg 51%
    14:00 +15°C° 0 mm 5 mps 753 mmHg 53%
    15:00 +14°C° 0 mm 4 mps 753 mmHg 55%
    16:00 +14°C° 0 mm 4 mps 753 mmHg 57%
    17:00 +12°C° 0 mm 3 mps 753 mmHg 64%
    18:00 +10°C° 0 mm 3 mps 753 mmHg 72%
    19:00 +9°C° 0 mm 2 mps 754 mmHg 79%
    20:00 +9°C° 0 mm 2 mps 754 mmHg 81%
    21:00 +8°C° 0 mm 2 mps 754 mmHg 82%
    22:00 +8°C° 0 mm 2 mps 754 mmHg 84%
    23:00 +8°C° 0 mm 2 mps 754 mmHg 83%

    29 September, Saturday

    Time Temperature Precipitation Wind Pressure Humidity
    00:00 +8°C° 0 mm 2 mps 754 mmHg 82%
    01:00 +8°C° 0 mm 2 mps 754 mmHg 81%
    02:00 +8°C° 0 mm 2 mps 754 mmHg 83%
    03:00 +7°C° 0 mm 2 mps 754 mmHg 85%
    04:00 +7°C° 0 mm 2 mps 755 mmHg 88%
    05:00 +7°C° 0 mm 2 mps 755 mmHg 86%
    06:00 +7°C° 0 mm 2 mps 755 mmHg 84%
    07:00 +7°C° 0 mm 2 mps 756 mmHg 83%
    08:00 +9°C° 0 mm 2 mps 756 mmHg 74%
    09:00 +10°C° 0 mm 2 mps 756 mmHg 65%
    10:00 +12°C° 0 mm 3 mps 757 mmHg 57%
    11:00 +12°C° 0 mm 3 mps 757 mmHg 53%
    12:00 +13°C° 0 mm 3 mps 757 mmHg 49%
    13:00 +13°C° 0 mm 3 mps 757 mmHg 45%
    14:00 +13°C° 0 mm 3 mps 757 mmHg 47%
    15:00 +14°C° 0 mm 2 mps 757 mmHg 49%
    16:00 +13°C° 0 mm 2 mps 757 mmHg 51%
    17:00 +12°C° 0 mm 2 mps 757 mmHg 56%
    18:00 +10°C° 0 mm 1 mps 758 mmHg 60%
    19:00 +8°C° 0 mm 1 mps 758 mmHg 64%
    20:00 +8°C° 0 mm 1 mps 758 mmHg 65%
    21:00 +7°C° 0 mm 2 mps 758 mmHg 67%
    22:00 +6°C° 0 mm 2 mps 758 mmHg 68%
    23:00 +6°C° 0 mm 2 mps 757 mmHg 69%
    Show more